Portada
METAR-TAF:

METAR-TAF

Aeropuertos :

Aeropuerto Internacional de la Región de Murcia

Murcia, Corvera, España

latitud: 37-48-13N, longitud: 1-07-27W, altitud: 193 m

Observación

El informe se hizo hace 31 minutos, a las 12:00 UTC
Viento 3 kt del este-sureste, variando entre este-noreste y sur-sureste
Temperatura 23°C
Humedad 61%
Presión 1013 hPa
Visibilidad 10 km o más
Nubes dispersas a una altura de 3000 ft

METAR: LEMI 261200Z 11003KT 060V150 9999 SCT030 23/15 Q1013

Hora: 14:31 (12:31 UTC)


TAF: falta

Observaciones y pronósticos meteorológicos de más de 4000 aeropuertos (mensajes METAR y TAF).

Los puntos amarillos y rojos representan las estaciones disponibles.

Ponga el ratón en el punto deseado para ver el nombre de la estación.

Haga clic para ver las observaciones y los pronósticos meteorológicos.

Para cambiar el mapa : haga clic en los botones verdes con una cruz de color negro para hacer un zoom, en el botón verde con un guión para alejar o en las flechas verdes para mapas adyacentes.


METAR-TAF: